Location: Unspecified
(0.0000°N, 0.0000°E)
Time: 06:35:41
(UTC+00:00)

Transit 2A Rocket - Pass Details

Date: 24 November 2019
Orbit: 594 x 909 km, 66.7° (Epoch: 11 December)

Event Time Altitude Azimuth Distance (km) Brightness Sun altitude
Rises 06:17:26 0° 354° (N) 2,990 7.8 7.2°
Reaches altitude 10° 06:19:47 10° 2° (N) 2,125 7.2 7.8°
Maximum altitude 06:24:17 39° 71° (ENE) 1,076 6.6 8.8°
Drops below altitude 10° 06:29:14 10° 140° (SE) 2,329 8.8 10.0°
Sets 06:31:53 0° 147° (SSE) 3,314 9.3 10.6°
